Back to catalog

BESSA

AliveCommunicationsSSO
NORAD 68836·PAYLOAD·🇵🇹 Portugal

Launched Mar 30, 2026 from Vandenberg Space Force Base

Loading…

Next Passes (next 24 hours)

TLE

FreshSource: Space-Track

Epoch: Sep 14, 2026, 03:16 UTC

1 68836U 26067CX  26257.13622161  .00007482  00000-0  35546-3 0  9993
2 68836  97.4623 214.4475 0012233  67.6604 292.5926 15.19447403 25247

Track BESSA in real time with AllMySat

Download on the App Store